User: anonymous   Login
Location: Long Point Provincial Park
(42.5794°N, 80.4103°W)
Time: 06:53:03
(UTC-04:00)
Language:

Iridium 19 - Orbit

View from above orbital plane
View from above orbital plane
View from above satellite
View from above satellite

Ground track
Ground track

The orbit data is extracted from the following two-line orbital elements,

1 24965U 97056A   17206.21605878 +.00000156 +00000-0 +48507-4 0  9996
2 24965 086.3976 302.7983 0002310 093.7556 266.3903 14.34218791038000
Epoch (UTC): 25 July 2017 05:11:07
Eccentricity: 0.0002310
inclination: 86.3976°
perigee height: 776 km
apogee height: 779 km
right ascension of ascending node: 302.7983°
argument of perigee: 93.7556°
revolutions per day: 14.34218791
mean anomaly at epoch: 266.3903°
orbit number at epoch: 3800

The dashed part of the orbit path shows where the satellite is in the earth's shadow,  

DLR